CW5506 Weather Reports


time (UTC)temp
F
wind
direction
speed
knots
gust
knots
rain 1hr
in
rain 24hr
in
rain mn
in
humidity
%
barometer
mb
20260509091524 53 190 0.0 0.0 0.00 0.00 0.00 92 1000.4
20260509090015 53 182 0.0 0.0 0.00 0.00 0.00 92 1000.5
20260509084513 53 165 0.0 0.0 0.00 0.00 0.00 92 1000.6
20260509083013 52 186 0.0 0.0 0.00 0.00 0.00 91 1001.1
20260509081518 52 185 0.0 0.0 0.00 0.00 0.00 89 1001.2
20260509080011 52 184 0.0 0.0 0.00 0.00 0.00 87 1001.2
20260509074508 52 201 0.0 0.0 0.00 0.00 0.00 85 1001.4
20260509073005 51 169 0.0 0.0 0.00 0.00 0.00 79 1001.7
20260509071502 51 169 0.0 0.0 0.00 0.00 0.00 72 1001.9
20260509070059 51 161 0.0 0.0 0.00 0.00 0.00 64 1001.9
20260509064619 51 161 0.0 0.0 0.00 0.00 0.00 59 1001.9
20260509063056 52 160 0.0 0.0 0.00 0.00 0.00 51 1002.2
20260509061554 52 172 0.0 0.0 0.00 0.00 0.00 46 1002.3
20260509060051 52 159 0.0 0.0 0.00 0.00 0.00 41 1002.3
20260509054600 52 157 0.0 0.0 0.00 0.00 0.00 39 1002.6
20260509053051 52 148 0.0 0.0 0.00 0.00 0.00 39 1002.8
20260509051551 52 147 0.0 0.0 0.00 0.00 0.00 39 1002.7
20260509050046 51 144 0.0 0.0 0.00 0.00 0.00 39 1002.8
20260509044545 51 158 0.0 0.0 0.00 0.00 0.00 39 1002.9
20260509043044 51 158 0.0 0.0 0.00 0.00 0.00 39 1002.9
20260509041610 51 171 0.0 0.0 0.00 0.00 0.00 38 1003.1
20260509040044 51 171 0.0 0.0 0.00 0.00 0.00 37 1003.5
20260509034540 52 171 0.0 0.0 0.00 0.00 0.00 36 1003.5
20260509033040 52 180 0.0 0.0 0.00 0.00 0.00 35 1003.6
20260509031540 52 180 0.0 0.0 0.00 0.00 0.00 34 1004.0
20260509030039 53 180 0.0 0.0 0.00 0.00 0.00 33 1004.1
20260509024539 53 180 0.0 0.0 0.00 0.00 0.00 33 1004.3
20260509023046 53 180 0.0 0.0 0.00 0.00 0.00 33 1004.3
20260509021538 54 180 0.0 0.0 0.00 0.00 0.00 34 1004.1
20260509020048 54 180 0.0 0.0 0.00 0.00 0.00 32 1004.1
20260509014539 54 180 0.0 0.0 0.00 0.00 0.00 35 1004.1
20260509013043 54 216 0.0 0.0 0.00 0.00 0.00 35 1004.0
20260509011537 56 215 0.0 0.0 0.00 0.00 0.00 31 1004.1
20260509010039 57 215 0.0 0.0 0.00 0.00 0.00 29 1004.1
20260509004535 58 215 0.0 0.0 0.00 0.00 0.00 28 1004.1
20260509003032 59 215 0.0 0.0 0.00 0.00 0.00 28 1004.3
20260509001532 60 215 0.0 0.0 0.00 0.00 0.00 27 1004.7
20260509000030 61 215 0.0 0.0 0.00 0.00 0.00 27 1004.7
20260508234531 61 219 0.0 0.0 0.00 0.00 0.00 27 1004.8
20260508233029 62 219 2.6 0.0 0.00 0.00 0.00 27 1005.1
20260508231528 62 210 3.5 0.0 0.00 0.00 0.00 28 1005.2
20260508230038 62 214 0.0 0.0 0.00 0.00 0.00 27 1005.1
20260508224527 63 209 0.9 0.0 0.00 0.00 0.00 26 1005.3
20260508223029 63 211 0.9 0.0 0.00 0.00 0.00 25 1005.4
20260508221525 64 221 3.5 0.0 0.00 0.00 0.00 25 1005.4
20260508220027 64 290 1.7 0.0 0.00 0.00 0.00 25 1005.4
20260508214528 63 241 5.2 0.0 0.00 0.00 0.00 25 1005.4
20260508213025 64 225 4.3 0.0 0.00 0.00 0.00 25 1005.4
20260508211533 64 242 4.3 0.0 0.00 0.00 0.00 25 1005.4
20260508210020 64 261 5.2 0.0 0.00 0.00 0.00 25 1005.6
20260508204519 64 205 4.3 0.0 0.00 0.00 0.00 27 1005.8
20260508203017 64 213 0.9 0.0 0.00 0.00 0.00 27 1005.9
20260508201516 64 222 1.7 0.0 0.00 0.00 0.00 27 1006.2
20260508200017 64 240 4.3 0.0 0.00 0.00 0.00 26 1006.3
20260508194526 63 204 2.6 0.0 0.00 0.00 0.00 28 1006.5
20260508193012 62 208 3.5 0.0 0.00 0.00 0.00 27 1006.5
20260508191512 61 179 4.3 0.0 0.00 0.00 0.00 28 1006.5
20260508190013 62 206 4.3 0.0 0.00 0.00 0.00 26 1006.7
20260508184510 62 204 0.9 0.0 0.00 0.00 0.00 28 1007.0
20260508183019 61 227 4.3 0.0 0.00 0.00 0.00 27 1006.9
20260508181510 62 209 0.9 0.0 0.00 0.00 0.00 28 1007.0
20260508180012 63 209 0.9 0.0 0.00 0.00 0.00 28 1007.3
20260508174506 61 306 4.3 0.0 0.00 0.00 0.00 31 1007.5
20260508173005 62 200 1.7 0.0 0.00 0.00 0.00 30 1007.8
20260508171504 62 292 0.0 0.0 0.00 0.00 0.00 33 1008.0
20260508170002 60 217 4.3 0.0 0.00 0.00 0.00 31 1008.5
20260508164501 59 188 1.7 0.0 0.00 0.00 0.00 34 1008.5
20260508163106 60 233 0.0 0.0 0.00 0.00 0.00 33 1008.5
20260508161600 61 211 2.6 0.0 0.00 0.00 0.00 35 1008.5
20260508160055 58 219 3.5 0.0 0.00 0.00 0.00 36 1008.5
20260508154609 57 158 3.5 0.0 0.00 0.00 0.00 39 1008.6
20260508153053 57 240 1.7 0.0 0.00 0.00 0.00 41 1008.7
20260508151552 58 220 0.9 0.0 0.00 0.00 0.00 44 1008.7
20260508150048 56 183 3.5 0.0 0.00 0.00 0.00 46 1009.1
20260508144600 56 171 0.0 0.0 0.00 0.00 0.00 52 1009.1
20260508143044 54 172 0.9 0.0 0.00 0.00 0.00 51 1009.1
20260508141542 54 165 0.0 0.0 0.00 0.00 0.00 54 1009.2
20260508140040 53 179 0.0 0.0 0.00 0.00 0.00 58 1009.2
20260508134551 52 181 0.0 0.0 0.00 0.00 0.00 63 1009.3
20260508133046 51 263 0.0 0.0 0.00 0.00 0.00 67 1009.5
20260508131530 49 268 0.0 0.0 0.00 0.00 0.00 71 1009.6
20260508130029 48 269 0.0 0.0 0.00 0.00 0.00 74 1009.7
20260508124528 46 267 0.0 0.0 0.00 0.00 0.00 77 1009.7
20260508123041 46 278 0.0 0.0 0.00 0.00 0.00 81 1009.6
20260508121523 44 278 0.0 0.0 0.00 0.00 0.00 88 1009.4
20260508120017 41 278 0.0 0.0 0.00 0.00 0.00 94 1009.3
20260508114516 39 278 0.0 0.0 0.00 0.00 0.00 99 1009.2
20260508113019 38 278 0.0 0.0 0.00 0.00 0.00 100 1009.3
20260508111514 35 279 0.0 0.0 0.00 0.00 0.00 100 1009.4
20260508110013 34 279 0.0 0.0 0.00 0.00 0.00 100 1009.2
20260508104513 33 279 0.0 0.0 0.00 0.00 0.00 100 1009.0
20260508103016 33 279 0.0 0.0 0.00 0.00 0.00 100 1009.2
20260508101512 34 279 0.0 0.0 0.00 0.00 0.00 100 1009.3
20260508100010 34 279 0.0 0.0 0.00 0.00 0.00 99 1009.3
20260508094509 34 279 0.0 0.0 0.00 0.00 0.00 98 1009.4
20260508093010 34 279 0.0 0.0 0.00 0.00 0.00 97 1009.4